Pullman, WA

10:27 PM PDT on April 24, 2017 (GMT -0700)
Pullman-Moscow Regional

Weather History for KPUW - August, 2013

Change the Weather History Date:

Thursday, August 22, 2013

  Actual Average Record
Temperature  
Mean Temperature 68 °F 65 °F  
Max Temperature 86 °F 81 °F 99 °F (1946)
Min Temperature 50 °F 49 °F 37 °F (1968)
Degree Days  
Heating Degree Days 0 3  
Month to date heating degree days 14 36  
Since 1 June heating degree days 228 306  
Since 1 July heating degree days 38 100  
Cooling Degree Days 3 3  
Month to date cooling degree days 97 73  
Year to date cooling degree days 247 173  
Since 1 June cooling degree days 235 168  
Growing Degree Days 18 (Base 50)    
Moisture  
Dew Point 40 °F    
Average Humidity 47    
Maximum Humidity 73    
Minimum Humidity 20    
Precipitation  
Precipitation 0.02 in 0.02 in 0.69 in (1992)
Month to date precipitation 0.32 0.46  
Year to date precipitation 8.75 10.74  
Sea Level Pressure  
Sea Level Pressure 29.91 in    
Wind  
Wind Speed 6 mph (SE)    
Max Wind Speed 28 mph    
Max Gust Speed 37 mph    
Visibility 9 miles    
Events Rain    
T = Trace of Precipitation, MM = Missing Value Source: NWS Daily Summary

Daily Weather History Graph

Daily Weather History Graph

Search for Another Location

Airport or City:

Trip Planner

Search our weather history database for the weather conditions in past years. The results will help you decide how hot, cold, wet, or windy it might be!

Date:

Astronomy

Aug. 22, 2013 Rise Set
Actual Time 5:55 AM PDT 7:45 PM PDT
Civil Twilight 5:23 AM PDT 8:17 PM PDT
Nautical Twilight 4:43 AM PDT 8:57 PM PDT
Astronomical Twilight 4:00 AM PDT 9:40 PM PDT
Moon 8:19 PM PDT (8/22) 8:00 AM PDT (8/22)
Length of Visible Light 14h 54m
Length of Day
13h 50m
Waning Gibbous, 96% of the Moon is Illuminated
Aug 22
Waning Gibbous
Aug 28
Last Quarter
Sep 5
New
Sep 12
First Quarter
Sep 19
Full

Hourly Weather History & Observations

Time (PDT) Temp. Dew Point Humidity Pressure Visibility Wind Dir Wind Speed Gust Speed Precip Events Conditions
12:53 AM 53.1 °F 30.9 °F 43% 29.97 in 10.0 mi Calm Calm - N/A   Clear
1:53 AM 52.0 °F 30.9 °F 45% 29.97 in 10.0 mi Calm Calm - N/A   Clear
2:53 AM 51.1 °F 30.9 °F 46% 29.96 in 10.0 mi Calm Calm - N/A   Clear
3:53 AM 54.0 °F 33.1 °F 45% 29.96 in 10.0 mi Calm Calm - N/A   Clear
4:53 AM 55.9 °F 35.1 °F 45% 29.94 in 10.0 mi Calm Calm - N/A   Clear
5:53 AM 55.9 °F 36.0 °F 47% 29.94 in 10.0 mi Calm Calm - N/A   Clear
6:53 AM 55.9 °F 37.0 °F 49% 29.96 in 10.0 mi Calm Calm - N/A   Clear
7:53 AM 70.0 °F 37.0 °F 30% 29.94 in 10.0 mi East 8.1 mph - N/A   Clear
8:53 AM 73.9 °F 37.9 °F 27% 29.94 in 7.0 mi SE 8.1 mph - N/A   Clear
9:53 AM 78.1 °F 37.9 °F 24% 29.94 in 7.0 mi ESE 8.1 mph - N/A   Clear
10:53 AM 77.0 °F 37.9 °F 24% 29.94 in 6.0 mi East 11.5 mph - N/A   Haze
11:53 AM 77.0 °F 39.0 °F 25% 29.94 in 5.0 mi ESE 10.4 mph - N/A   Haze
12:53 PM 78.1 °F 41.0 °F 27% 29.92 in 6.0 mi SE 4.6 mph - 0.00 in   Haze
1:53 PM 80.1 °F 37.9 °F 22% 29.92 in 7.0 mi SE 3.5 mph - N/A   Partly Cloudy
2:53 PM 82.0 °F 39.9 °F 22% 29.90 in 7.0 mi South 3.5 mph - N/A   Scattered Clouds
3:53 PM 84.9 °F 37.9 °F 19% 29.86 in 9.0 mi Calm Calm - N/A   Clear
4:53 PM 84.9 °F 39.0 °F 20% 29.84 in 9.0 mi Calm Calm - N/A   Clear
5:53 PM 84.0 °F 39.9 °F 21% 29.83 in 9.0 mi Calm Calm - N/A   Clear
6:53 PM 82.0 °F 42.1 °F 24% 29.83 in 9.0 mi Calm Calm - N/A   Clear
7:53 PM 79.0 °F 41.0 °F 26% 29.84 in 10.0 mi WSW 6.9 mph - N/A   Clear
8:53 PM 71.1 °F 51.1 °F 49% 29.91 in 9.0 mi SW 19.6 mph 29.9 mph 0.00 in Rain Light Rain
9:53 PM 66.0 °F 55.9 °F 70% 29.91 in 10.0 mi South 13.8 mph - 0.00 in Rain Light Rain
10:53 PM 66.9 °F 57.0 °F 70% 29.84 in 10.0 mi East 18.4 mph 25.3 mph 0.02 in   Scattered Clouds
11:53 PM 64.9 °F 55.9 °F 73% 29.88 in 10.0 mi South 17.3 mph - N/A   Clear